User: anonymous   Login
Location: Unspecified
(0.0000°N, 0.0000°E)
Time: 00:15:51
(UTC+00:00)
Language:

TSUBAME - Orbit

View from above orbital plane
View from above orbital plane
View from above satellite
View from above satellite

Ground track
Ground track

The orbit data is extracted from the following two-line orbital elements,

1 40302U 14070E   17328.48881463  .00001155  00000-0  61284-4 0  9991
2 40302  97.3610  36.0443 0037776 285.6285 199.6498 15.16764914168648
Epoch (UTC): 24 November 2017 11:43:53
Eccentricity: 0.0037776
inclination: 97.3610°
perigee height: 489 km
apogee height: 541 km
right ascension of ascending node: 36.0443°
argument of perigee: 285.6285°
revolutions per day: 15.16764914
mean anomaly at epoch: 199.6498°
orbit number at epoch: 16864

The dashed part of the orbit path shows where the satellite is in the earth's shadow,  

DLR